Location: Home
(42.5358°N, 72.7383°W)
Time: 18:34:34
(UTC-05:00)

Tiros 1 - All Passes

Search period start: 29 November 2021 00:00
Search period end: 09 December 2021 00:00
Orbit: 630 x 664 km, 48.4° (Epoch: 29 November)

Date Brightness Start Highest point End Pass type
(mag) Time Alt. Az. Time Alt. Az. Time Alt. Az.
29 Nov - 00:36:25 10° WNW 00:41:07 56° NNE 00:45:50 10° E night (unlit)
29 Nov - 02:18:43 10° WNW 02:23:19 48° SW 02:27:55 10° SE night (unlit)
29 Nov - 18:15:38 10° SSE 18:17:54 13° SE 18:20:10 10° ESE visible
29 Nov - 19:54:46 10° SW 19:59:22 64° SSE 20:04:03 10° ENE visible
29 Nov - 21:37:10 10° W 21:41:44 48° NNW 21:46:21 10° ENE night (unlit)
29 Nov - 23:20:03 10° WNW 23:24:33 42° N 23:29:07 10° E night (unlit)
30 Nov - 01:02:21 10° WNW 01:07:08 87° NNE 01:11:57 10° ESE night (unlit)
30 Nov - 02:45:08 10° W 02:48:56 24° SW 02:52:45 10° S night (unlit)
30 Nov - 18:39:21 10° SSW 18:43:22 29° SE 18:47:25 10° E visible
30 Nov - 20:20:36 10° WSW 20:25:17 74° NNW 20:30:01 10° ENE visible
30 Nov - 22:03:28 10° WNW 22:07:56 41° N 22:12:27 10° ENE night (unlit)
30 Nov - 23:46:04 10° WNW 23:50:44 54° NNE 23:55:26 10° E night (unlit)
01 Dec - 01:28:21 10° WNW 01:32:59 51° SW 01:37:37 10° SE night (unlit)
01 Dec - 03:13:35 10° WSW 03:14:22 10° SW 03:15:08 10° SW night (unlit)
01 Dec - 17:25:47 10° SSE 17:27:37 12° SE 17:29:27 10° ESE visible
01 Dec - 19:04:28 10° SW 19:09:03 59° SSE 19:13:41 10° ENE visible
01 Dec - 20:46:48 10° W 20:51:22 50° NNW 20:55:59 10° ENE night (unlit)
01 Dec - 22:29:41 10° WNW 22:34:11 42° N 22:38:42 10° ENE night (unlit)
02 Dec - 00:12:00 10° WNW 00:16:46 83° NNE 00:21:35 10° ESE night (unlit)
02 Dec - 01:54:42 10° W 01:58:38 26° SW 02:02:34 10° SSE night (unlit)
02 Dec - 17:49:10 10° SSW 17:53:04 27° SE 17:57:00 10° E visible
02 Dec - 19:30:16 10° WSW 19:34:55 78° NNW 19:39:39 10° ENE visible
02 Dec - 21:13:06 10° WNW 21:17:33 41° N 21:22:03 10° ENE night (unlit)
02 Dec - 22:55:44 10° WNW 23:00:22 52° NNE 23:05:02 10° E night (unlit)
03 Dec - 00:37:59 10° WNW 00:42:39 55° SW 00:47:19 10° SE night (unlit)
03 Dec - 02:22:30 10° WSW 02:24:04 11° SW 02:25:39 10° SSW night (unlit)
03 Dec - 16:36:09 10° SE 16:37:20 11° SE 16:38:31 10° ESE daylight
03 Dec - 18:14:12 10° SW 18:18:43 55° SE 18:23:18 10° ENE visible
03 Dec - 19:56:25 10° W 20:00:59 51° NNW 20:05:37 10° ENE visible
03 Dec - 21:39:20 10° WNW 21:43:47 41° N 21:48:17 10° ENE night (unlit)
03 Dec - 23:21:40 10° WNW 23:26:25 78° NNE 23:31:12 10° ESE night (unlit)
04 Dec - 01:04:17 10° W 01:08:19 28° SW 01:12:21 10° SSE night (unlit)
04 Dec - 16:59:00 10° SSW 17:02:46 25° SE 17:06:33 10° E visible
04 Dec - 18:39:55 10° WSW 18:44:34 82° NNW 18:49:18 10° ENE visible
04 Dec - 20:22:43 10° WNW 20:27:10 41° N 20:31:40 10° ENE visible
04 Dec - 22:05:23 10° WNW 22:09:59 50° NNE 22:14:37 10° E night (unlit)
04 Dec - 23:47:38 10° WNW 23:52:18 60° SSW 23:57:00 10° SE night (unlit)
05 Dec - 01:31:43 10° WSW 01:33:47 13° SW 01:35:51 10° SSW night (unlit)
05 Dec - 17:23:55 10° SW 17:28:23 51° SE 17:32:55 10° ENE visible
05 Dec - 19:06:03 10° W 19:10:37 53° NNW 19:15:14 10° ENE visible
05 Dec - 20:48:58 10° WNW 20:53:24 40° N 20:57:53 10° ENE visible
05 Dec - 22:31:19 10° WNW 22:36:03 74° NNE 22:40:49 10° ESE night (unlit)
06 Dec - 00:13:52 10° WNW 00:18:00 30° SW 00:22:08 10° SSE night (unlit)
06 Dec - 16:08:52 10° S 16:12:28 23° SE 16:16:05 10° E daylight
06 Dec - 17:49:35 10° WSW 17:54:13 87° NNW 17:58:56 10° ENE visible
06 Dec - 19:32:21 10° WNW 19:36:47 42° N 19:41:16 10° ENE visible
06 Dec - 21:15:03 10° WNW 21:19:36 48° NNE 21:24:12 10° E night (unlit)
06 Dec - 22:57:17 10° WNW 23:01:57 64° SSW 23:06:40 10° SE night (unlit)
07 Dec - 00:41:03 10° W 00:43:29 14° SW 00:45:55 10° SSW night (unlit)
07 Dec - 16:33:39 10° SW 16:38:04 47° SE 16:42:32 10° ENE daylight
07 Dec - 18:15:41 10° W 18:20:15 55° NNW 18:24:52 10° ENE visible
07 Dec - 19:58:36 10° WNW 20:03:01 40° N 20:07:28 10° ENE visible
07 Dec - 21:40:59 10° WNW 21:45:42 70° NNE 21:50:25 10° ESE night (unlit)
07 Dec - 23:23:28 10° WNW 23:27:40 32° SW 23:31:53 10° SSE night (unlit)
08 Dec - 15:18:44 10° S 15:22:10 21° SE 15:25:37 10° E daylight
08 Dec - 16:59:15 10° WSW 17:03:53 88° SSE 17:08:34 10° ENE visible
08 Dec - 18:41:58 10° W 18:46:25 42° N 18:50:53 10° ENE visible
08 Dec - 20:24:42 10° WNW 20:29:13 47° NNE 20:33:47 10° E visible
08 Dec - 22:06:55 10° WNW 22:11:37 69° SSW 22:16:20 10° SE night (unlit)
08 Dec - 23:50:28 10° W 23:53:11 15° SW 23:55:55 10° SSW night (unlit)
